• In Netherlands
  • List of Countries
  • For 7 days
  • Water Temperature
  • Satellite Maps
  • Weather Map
  • Weather Widgets
  • user-avatar
    Login

    Hourly Weather Shaki

    Today, 22 November, Wednesday

    Time Temperature Precipitation Wind Pressure Humidity
    00:00 +14°C° 0 mm 2 mps 724 mmHg 41%
    01:00 +14°C° 0 mm 2 mps 724 mmHg 41%
    02:00 +12°C° 0 mm 3 mps 724 mmHg 41%
    03:00 +13°C° 0 mm 4 mps 724 mmHg 37%
    04:00 +12°C° 0 mm 5 mps 724 mmHg 41%
    05:00 +12°C° 0 mm 5 mps 725 mmHg 45%
    06:00 +10°C° 0 mm 5 mps 725 mmHg 48%
    07:00 +11°C° 0 mm 6 mps 726 mmHg 47%
    08:00 +13°C° 0 mm 6 mps 726 mmHg 46%
    09:00 +14°C° 0 mm 6 mps 726 mmHg 44%
    10:00 +14°C° 0.1 mm 6 mps 727 mmHg 46%
    11:00 +14°C° 0.1 mm 6 mps 727 mmHg 47%
    12:00 +14°C° 0.1 mm 5 mps 727 mmHg 48%
    13:00 +13°C° 0.3 mm 5 mps 728 mmHg 50%
    14:00 +13°C° 0.3 mm 5 mps 728 mmHg 53%
    15:00 +12°C° 0 mm 5 mps 728 mmHg 57%
    16:00 +11°C° 0.6 mm 4 mps 729 mmHg 61%
    17:00 +10°C° 0.6 mm 4 mps 729 mmHg 65%
    18:00 +8°C° 0.6 mm 4 mps 730 mmHg 69%
    19:00 +8°C° 0.9 mm 4 mps 730 mmHg 70%
    20:00 +8°C° 0.9 mm 3 mps 731 mmHg 72%
    21:00 +8°C° 0.9 mm 3 mps 731 mmHg 73%
    22:00 +8°C° 0.4 mm 2 mps 732 mmHg 72%
    23:00 +7°C° 0.4 mm 2 mps 732 mmHg 72%

    Tomorrow, 23 November, Thursday

    Time Temperature Precipitation Wind Pressure Humidity
    00:00 +7°C° 0.4 mm 2 mps 732 mmHg 71%
    01:00 +7°C° 0.1 mm 2 mps 732 mmHg 70%
    02:00 +6°C° 0.1 mm 2 mps 733 mmHg 70%
    03:00 +6°C° 0.1 mm 2 mps 733 mmHg 69%
    04:00 +6°C° 0 mm 1 mps 733 mmHg 66%
    05:00 +6°C° 0 mm 1 mps 733 mmHg 64%
    06:00 +6°C° 0 mm 1 mps 733 mmHg 61%
    07:00 +6°C° 0 mm 1 mps 734 mmHg 56%
    08:00 +7°C° 0 mm 1 mps 734 mmHg 52%
    09:00 +8°C° 0 mm 1 mps 734 mmHg 47%
    10:00 +7°C° 0 mm 2 mps 734 mmHg 45%
    11:00 +8°C° 0 mm 2 mps 733 mmHg 42%
    12:00 +8°C° 0 mm 2 mps 733 mmHg 40%
    13:00 +8°C° 0 mm 2 mps 733 mmHg 40%
    14:00 +8°C° 0 mm 2 mps 733 mmHg 40%
    15:00 +8°C° 0 mm 3 mps 733 mmHg 40%
    16:00 +7°C° 0 mm 3 mps 734 mmHg 41%
    17:00 +5°C° 0 mm 3 mps 734 mmHg 42%
    18:00 +4°C° 0 mm 3 mps 735 mmHg 43%
    19:00 +3°C° 0 mm 3 mps 735 mmHg 44%
    20:00 +3°C° 0 mm 3 mps 735 mmHg 45%
    21:00 +3°C° 0 mm 4 mps 736 mmHg 47%
    22:00 +1°C° 0 mm 4 mps 736 mmHg 45%
    23:00 +1°C° 0 mm 4 mps 736 mmHg 44%

    Day after tomorrow, 24 November, Friday

    Time Temperature Precipitation Wind Pressure Humidity
    00:00 +1°C° 0 mm 4 mps 737 mmHg 42%
    01:00 +1°C° 0 mm 4 mps 737 mmHg 40%
    02:00 +1°C° 0 mm 4 mps 737 mmHg 37%
    03:00 +1°C° 0 mm 4 mps 737 mmHg 35%
    04:00 0°C° 0 mm 4 mps 737 mmHg 34%
    05:00 0°C° 0 mm 4 mps 737 mmHg 32%
    06:00 0°C° 0 mm 4 mps 738 mmHg 31%
    07:00 +1°C° 0 mm 4 mps 738 mmHg 31%
    08:00 +3°C° 0 mm 4 mps 738 mmHg 32%
    09:00 +4°C° 0 mm 4 mps 739 mmHg 32%
    10:00 +4°C° 0 mm 4 mps 738 mmHg 31%
    11:00 +5°C° 0 mm 4 mps 738 mmHg 30%
    12:00 +6°C° 0 mm 5 mps 738 mmHg 28%
    13:00 +6°C° 0 mm 4 mps 738 mmHg 29%
    14:00 +6°C° 0 mm 4 mps 738 mmHg 29%
    15:00 +5°C° 0 mm 4 mps 738 mmHg 29%
    16:00 +4°C° 0 mm 3 mps 739 mmHg 31%
    17:00 +3°C° 0 mm 3 mps 739 mmHg 32%
    18:00 +2°C° 0 mm 3 mps 739 mmHg 34%
    19:00 +1°C° 0 mm 3 mps 739 mmHg 35%
    20:00 +1°C° 0 mm 3 mps 740 mmHg 36%
    21:00 +1°C° 0 mm 3 mps 740 mmHg 37%
    22:00 +1°C° 0 mm 3 mps 740 mmHg 37%
    23:00 +1°C° 0 mm 3 mps 740 mmHg 38%

    25 November, Saturday

    Time Temperature Precipitation Wind Pressure Humidity
    00:00 +1°C° 0 mm 3 mps 740 mmHg 38%
    01:00 +1°C° 0 mm 3 mps 740 mmHg 39%
    02:00 0°C° 0 mm 3 mps 740 mmHg 40%
    03:00 -1°C° 0 mm 4 mps 740 mmHg 41%
    04:00 -1°C° 0 mm 4 mps 741 mmHg 42%
    05:00 -1°C° 0 mm 4 mps 741 mmHg 43%
    06:00 -1°C° 0 mm 4 mps 741 mmHg 44%
    07:00 0°C° 0 mm 4 mps 742 mmHg 43%
    08:00 +1°C° 0 mm 4 mps 742 mmHg 43%
    09:00 +2°C° 0 mm 5 mps 743 mmHg 42%
    10:00 +3°C° 0 mm 5 mps 743 mmHg 40%
    11:00 +5°C° 0 mm 5 mps 743 mmHg 39%
    12:00 +6°C° 0 mm 5 mps 743 mmHg 37%
    13:00 +5°C° 0 mm 4 mps 743 mmHg 38%
    14:00 +5°C° 0 mm 4 mps 743 mmHg 38%
    15:00 +5°C° 0 mm 4 mps 743 mmHg 38%
    16:00 +4°C° 0 mm 3 mps 744 mmHg 40%
    17:00 +4°C° 0 mm 2 mps 744 mmHg 42%
    18:00 +2°C° 0 mm 2 mps 745 mmHg 44%
    19:00 +2°C° 0 mm 2 mps 745 mmHg 44%
    20:00 +2°C° 0 mm 2 mps 745 mmHg 44%
    21:00 +2°C° 0 mm 1 mps 745 mmHg 44%
    22:00 +1°C° 0 mm 2 mps 745 mmHg 42%
    23:00 +1°C° 0 mm 2 mps 745 mmHg 41%

    26 November, Sunday

    Time Temperature Precipitation Wind Pressure Humidity
    00:00 +1°C° 0 mm 2 mps 745 mmHg 39%
    01:00 -1°C° 0 mm 2 mps 745 mmHg 39%
    02:00 -1°C° 0 mm 2 mps 745 mmHg 38%
    03:00 +1°C° 0 mm 1 mps 745 mmHg 38%
    04:00 +1°C° 0 mm 1 mps 746 mmHg 40%
    05:00 +1°C° 0 mm 1 mps 746 mmHg 42%
    06:00 +1°C° 0 mm 1 mps 746 mmHg 44%
    07:00 +2°C° 0 mm 1 mps 746 mmHg 42%
    08:00 +3°C° 0 mm 1 mps 746 mmHg 41%
    09:00 +4°C° 0 mm 1 mps 747 mmHg 40%
    10:00 +5°C° 0 mm 1 mps 746 mmHg 39%
    11:00 +6°C° 0 mm 1 mps 746 mmHg 39%
    12:00 +6°C° 0 mm 1 mps 745 mmHg 39%
    13:00 +6°C° 0 mm 1 mps 745 mmHg 41%
    14:00 +6°C° 0 mm 1 mps 745 mmHg 42%
    15:00 +6°C° 0 mm 1 mps 745 mmHg 44%
    16:00 +5°C° 0 mm 1 mps 745 mmHg 47%
    17:00 +4°C° 0 mm 1 mps 745 mmHg 50%
    18:00 +3°C° 0 mm 1 mps 745 mmHg 54%
    19:00 +3°C° 0 mm 1 mps 746 mmHg 54%
    20:00 +2°C° 0 mm 1 mps 746 mmHg 54%
    21:00 +2°C° 0 mm 1 mps 746 mmHg 54%
    22:00 +2°C° 0 mm 1 mps 745 mmHg 54%
    23:00 +1°C° 0 mm 2 mps 745 mmHg 53%

    27 November, Monday

    Time Temperature Precipitation Wind Pressure Humidity
    00:00 +1°C° 0 mm 2 mps 745 mmHg 52%
    01:00 +1°C° 0 mm 2 mps 745 mmHg 50%
    02:00 +1°C° 0 mm 2 mps 744 mmHg 47%
    03:00 -1°C° 0 mm 2 mps 744 mmHg 45%
    04:00 -1°C° 0 mm 2 mps 744 mmHg 43%
    05:00 -1°C° 0 mm 2 mps 744 mmHg 40%
    06:00 -1°C° 0 mm 2 mps 744 mmHg 38%
    07:00 +2°C° 0 mm 2 mps 744 mmHg 37%
    08:00 +4°C° 0 mm 1 mps 744 mmHg 35%
    09:00 +5°C° 0 mm 1 mps 743 mmHg 34%
    10:00 +7°C° 0 mm 1 mps 743 mmHg 34%
    11:00 +8°C° 0 mm 1 mps 742 mmHg 33%
    12:00 +8°C° 0 mm 2 mps 742 mmHg 33%
    13:00 +9°C° 0 mm 1 mps 741 mmHg 33%
    14:00 +9°C° 0 mm 1 mps 741 mmHg 34%
    15:00 +9°C° 0 mm 1 mps 741 mmHg 34%
    16:00 +8°C° 0 mm 1 mps 741 mmHg 35%
    17:00 +6°C° 0 mm 1 mps 741 mmHg 36%
    18:00 +5°C° 0 mm 1 mps 741 mmHg 37%
    19:00 +4°C° 0 mm 1 mps 741 mmHg 37%
    20:00 +4°C° 0 mm 1 mps 741 mmHg 36%
    21:00 +4°C° 0 mm 1 mps 741 mmHg 36%
    22:00 +4°C° 0 mm 1 mps 740 mmHg 36%
    23:00 +4°C° 0 mm 1 mps 740 mmHg 36%
    Show more